Location: Monrovia
(34.7865°N, 86.7139°W)
Time: 22:01:17
(UTC+00:00)

Cosmos 841 Rocket - Pass Details

Date: 14 July 2020
Orbit: 747 x 772 km, 74.0° (Epoch: 08 August)

Event Time Altitude Azimuth Distance (km) Brightness Sun altitude
Rises 09:33:57 0° 343° (NNW) 3,205 7.0 -13.0°
Reaches altitude 10° 09:36:19 10° 344° (NNW) 2,280 6.2 -12.6°
Maximum altitude 09:41:30 84° 73° (ENE) 764 3.5 -11.8°
Drops below altitude 10° 09:46:41 10° 162° (SSE) 2,282 5.8 -10.9°
Sets 09:49:03 0° 163° (SSE) 3,208 6.5 -10.5°
